AirNav   Everest Fuels
 
 862 users online  

7W5 Henry County Airport
Napoleon, Ohio, USA

GOING TO NAPOLEON?


FAA INFORMATION EFFECTIVE 26 JANUARY 2023

Location

FAA Identifier: 7W5
Lat/Long: 41-22-27.3710N 084-04-04.3650W
41-22.456183N 084-04.072750W
41.3742697,-84.0678792
(estimated)
Elevation: 682.9 ft. / 208.1 m (surveyed)
Variation: 05W (1985)
From city: 3 miles E of NAPOLEON, OH
Time zone: UTC -5 (UTC -4 during Daylight Saving Time)
Zip code: 43545

Airport Operations

Airport use: Open to the public
Activation date: 11/1971
Control tower: no
ARTCC: CLEVELAND CENTER
FSS: CLEVELAND FLIGHT SERVICE STATION
NOTAMs facility: CLE (NOTAM-D service available)
Attendance: MON-FRI 0800-1730, ALL SAT-SUN ON CALL
FOR SER CALL AMGR CELL.
Wind indicator: lighted
Segmented circle: no
Lights: ACTVT REIL RWY 10 & 28; PAPI RWY 10 & 28; MIRL RWY 10/28 - CTAF.
Beacon: white-green (lighted land airport)
Operates sunset to sunrise.

Airport Communications

CTAF/UNICOM: 123.0
TOLEDO APPROACH: 134.35
TOLEDO DEPARTURE: 134.35
WX AWOS-3P at USE (14 nm N): 127.375 (419-335-0775)
WX ASOS at DFI (16 nm W): 121.425 (419-658-2301)
WX ASOS at TOL (17 nm NE): PHONE 419-865-6924
WX AWOS-3 at 1G0 (20 nm E): 120.725 (419-354-1415)

Nearby radio navigation aids

VOR radial/distance  VOR name  Freq  Var
FBCr333/28.8FLAG CITY VORTAC108.2002W

 
NDB name  Hdg/Dist  Freq  Var  ID
TOPHR217/12.621905WTO - ---
ADRIAN185/29.727806WADG .- -.. --.

Airport Services

Fuel available: 100LL JET-A
Parking: hangars and tiedowns
Airframe service: MAJOR
Powerplant service: MAJOR
Bottled oxygen: LOW

Runway Information

Runway 10/28

Dimensions: 4001 x 60 ft. / 1220 x 18 m
Surface: asphalt, in excellent condition
Runway edge lights: medium intensity
RUNWAY 10  RUNWAY 28
Latitude: 41-22.517658N41-22.394668N
Longitude: 084-04.502347W084-03.643177W
Elevation: 680.8 ft.682.8 ft.
Traffic pattern: leftleft
Runway heading: 106 magnetic, 101 true286 magnetic, 281 true
Markings: nonprecision, in good conditionnonprecision, in good condition
Visual slope indicator: 2-light PAPI on left (3.00 degrees glide path)2-light PAPI on left (3.00 degrees glide path)
Runway end identifier lights: yesyes
Touchdown point: yes, no lightsyes, no lights
Obstructions: 5 ft. crops, 201 ft. from runway, 85 ft. right of centerline
+5 FT CROPS/CULTIVATED FLD, 0-200 FT DIST, 85-125 FT R.
6 ft. crops, 201 ft. from runway, 125 ft. left of centerline
+6 FT CROPS/CULTIVATED FLD, 0-200 FT DIST, 125 FT L.

Airport Ownership and Management from official FAA records

Ownership: Publicly-owned
Owner: HENRY CO ARPT AUTH
10646 COUNTY ROAD O
NAPOLEON, OH 43545-6217
Phone 419-599-6494
Manager: RANDY E AMES
10646 COUNTY ROAD O
NAPOLEON, OH 43545-6217
Phone 419-599-6494
CELL 419-583-0150.

Airport Operational Statistics

Aircraft based on the field: 17
Single engine airplanes: 16
Multi engine airplanes: 1
    
Aircraft operations: avg 106/week *
91% local general aviation
9% transient general aviation
<1% military
<1% air taxi
* for 12-month period ending 14 July 2020

Additional Remarks

FOR CD CTC TOLEDO APCH AT 419-865-1495.

Instrument Procedures

NOTE: All procedures below are presented as PDF files. If you need a reader for these files, you should download the free Adobe Reader.

NOT FOR NAVIGATION. Please procure official charts for flight.
FAA instrument procedures published for use from 26 January 2023 at 0901Z to 23 February 2023 at 0900z.

 
IAPs - Instrument Approach Procedures
RNAV (GPS) RWY 28   download
NOTE: Special Take-Off Minimums/Departure Procedures apply   download (164KB)

Other nearby airports with instrument procedures:

KUSE - Fulton County Airport (14 nm N)
KDFI - Defiance Memorial Airport (16 nm W)
KTOL - Eugene F Kranz Toledo Express Airport (17 nm NE)
1G0 - Wood County Airport (20 nm E)
0G6 - Williams County Airport (21 nm W)
 
Loc | Ops | Rwys | IFR | FBO | Links
Com | Nav | Svcs | Stats | Notes
Area around 7W5 (Henry County Airport)
 
Road maps at: MapQuest Bing Google
 
Aerial photo
WARNING: Photo may not be current or correct
Aerial photo of 7W5 (Henry County Airport)
Photo by Roger Kellogg
Photo taken 29-Sep-2007

Do you have a better or more recent aerial photo of Henry County Airport that you would like to share? If so, please send us your photo.

 
Sectional chart

 
Airport diagram
CAUTION: Diagram may not be current
Diagram of 7W5 (Henry County Airport)
 
Airport distance calculator
Flying to Henry County Airport? Find the distance to fly.

From to 7W5

Sunrise and sunset
Times for 28-Jan-2023
 Local
(UTC-5)
 Zulu
(UTC)
Morning civil twilight07:2312:23
Sunrise07:5312:53
Sunset17:4622:46
Evening civil twilight18:1623:16

Current date and time
Zulu (UTC)  29-Jan-2023 04:06:52
Local (UTC-5)  28-Jan-2023 23:06:52
 
METAR
KUSE 
14nm N 
290315Z AUTO 07009KT 8SM BKN060 OVC095 M03/M03 A3009 RMK AO2
KDFI 
17nm W 
290353Z AUTO 05004KT 9SM BKN060 OVC100 M02/M04 A3007 RMK AO2 SLP191 T10171044
KTOL 
17nm NE 
290352Z 09009KT 9SM BKN065 M01/M03 A3008 RMK AO2 SLP193 T10061033
KOWX 
21nm S 
290335Z AUTO 14003KT 10SM BKN050 BKN065 OVC110 01/M01 A3009 RMK AO1
KFDY 
28nm SE 
290353Z AUTO 15005KT 10SM OVC060 03/00 A3006 RMK AO2 SLP183 T00330000
KDUH 
29nm NE 
290355Z AUTO 00000KT 10SM SCT070 BKN110 00/M03 A3010 RMK AO2 T10051026
KTDZ 
29nm NE 
290353Z AUTO 07005KT 7SM BKN070 00/M03 A3010 RMK AO2 SLP200 T00001028 $
TAF
KTOL 
17nm NE 
281725Z 2818/2918 25006KT P6SM BKN100 FM290300 11006KT P6SM VCSH BKN050 FM290700 20009KT 5SM -SHRA BR OVC025 FM291200 22009KT 2SM -RA BR OVC015 FM291600 24009KT 2SM -RA BR OVC008
NOTAMs
Click for the latest NOTAMs
NOTAMs are issued by the DoD/FAA and will open in a separate window not controlled by AirNav.

 

 
 

FBO, Fuel Providers, and Aircraft Ground Support

  
 Business Name 
 
 Contact 
 
 Services / Description 
 
Fuel Prices
 
Comments
  
Ames Aviation 419-599-6494
no information available

If you are affiliated with Ames Aviation and would like to show here your services, contact info, web link, logo, and more, click here
100LL Jet A
FS --- $6.25 
SS $7.86 --- 
 Updated 04-Nov-2022
 
   write
FS=Full service
SS=Self service
Update Fuel Prices
 

Would you like to see your business listed on this page?

 If your business provides an interesting product or service to pilots, flight crews, aircraft, or users of the Henry County Airport, you should consider listing it here.  To start the listing process, click on the button below
 
Add a business
 

Other Pages about Henry County Airport

Update a link
 
Copyright © AirNav, LLC. All rights reserved. Privacy Policy  Contact